Simultaneous Nadir Overpasses (SNOs) Predictions

Prediction of SNOs between NOAA-20 and PACE Satellite Orbit:

Table of predicted SNOs for the next 14.0 days since TLE Epoch: 6/29/2024
Index Date (NOAA-20) Time (NOAA-20) Lat,Lon (NOAA-20) SZA (NOAA-20 ) Date (PACE) Time (PACE) Lat,Lon (PACE) SZA (PACE ) Distance(km) Time Diff (sec)
1 06/30/2024 02:47:02 79.98, 99.83 59.24 06/30/2024 02:47:22 79.98, 99.81 59.23 0.54 20
2 06/30/2024 03:37:26 -79.34, -87.22 121.90 06/30/2024 03:36:12 -79.26, -87.41 121.91 10.03 74
3 07/02/2024 07:13:28 79.94, 33.65 59.32 07/02/2024 07:13:22 79.94, 33.63 59.33 0.38 6
4 07/04/2024 10:49:15 -80.09, 158.13 120.19 07/04/2024 10:50:17 -80.09, 158.22 120.23 1.76 62
5 07/04/2024 11:39:55 79.93, -32.87 59.50 07/04/2024 11:39:22 79.92, -32.74 59.50 2.57 33
6 07/06/2024 15:15:40 -80.03, 92.20 120.09 07/06/2024 15:16:15 -80.02, 92.25 120.11 1.02 35
7 07/06/2024 16:06:20 79.86, -98.83 59.60 07/06/2024 16:05:20 79.85, -98.74 59.62 1.88 60
8 07/08/2024 19:42:06 -79.99, 25.93 119.90 07/08/2024 19:42:13 -79.98, 26.08 119.93 3.04 7
9 07/10/2024 23:17:55 80.17, 150.07 60.75 07/10/2024 23:19:08 80.18, 150.19 60.71 2.70 73



Historial Predications of SNOs between NOAA-20 and PACE
